This is the latest recevied weather packets stored in our database for station/object N5RPG. If no packets are shown the sender has not sent any weather packets the latest 10 day(s).
| Time | Temp. | Humidity | Pressure | Rain* | Wind** | Luminosity | Snow |
|---|---|---|---|---|---|---|---|
| 1777384349 | 25° C | 88% | 1014 hPa | 0 mm | - | 178 W/m² | - |
| 1777384045 | 25° C | 89% | 1014 hPa | 0 mm | - | 186 W/m² | - |
| 1777383741 | 25° C | 89% | 1014.2 hPa | 0 mm | - | 182 W/m² | - |
| 1777383438 | 24.44° C | 89% | 1014.2 hPa | 0 mm | - | 159 W/m² | - |
| 1777383134 | 24.44° C | 90% | 1014.3 hPa | 0 mm | - | 131 W/m² | - |
| 1777382831 | 24.44° C | 89% | 1014.5 hPa | 0 mm | - | 140 W/m² | - |
| 1777382526 | 24.44° C | 90% | 1014.5 hPa | 0 mm | - | 141 W/m² | - |
| 1777382223 | 24.44° C | 90% | 1014.3 hPa | 0 mm | - | 131 W/m² | - |
| 1777381919 | 24.44° C | 90% | 1014.4 hPa | 0 mm | - | 128 W/m² | - |
| 1777381618 | 24.44° C | 91% | 1014.4 hPa | 0 mm | - | 105 W/m² | - |
| 1777381315 | 23.89° C | 91% | 1014.3 hPa | 0 mm | - | 78 W/m² | - |
| 1777381012 | 23.89° C | 91% | 1014.1 hPa | 0 mm | - | 72 W/m² | - |
| 1777380708 | 23.89° C | 91% | 1014.2 hPa | 0 mm | - | 57 W/m² | - |
| 1777380404 | 23.89° C | 91% | 1014.2 hPa | 0 mm | - | 45 W/m² | - |
| 1777380101 | 23.89° C | 92% | 1014.2 hPa | 0 mm | - | 47 W/m² | - |
| 1777379797 | 23.89° C | 92% | 1014.2 hPa | 0 mm | - | 39 W/m² | - |
| 1777379493 | 23.89° C | 92% | 1014.5 hPa | 0 mm | - | 29 W/m² | - |
| 1777379188 | 23.89° C | 92% | 1014.4 hPa | 0 mm | - | 24 W/m² | - |
| 1777378883 | 23.89° C | 92% | 1014.2 hPa | 0 mm | - | 22 W/m² | - |
| 1777378580 | 23.89° C | 92% | 1014.1 hPa | 0 mm | - | 20 W/m² | - |
| 1777378276 | 23.89° C | 92% | 1014.2 hPa | 0 mm | - | 15 W/m² | - |
| 1777377975 | 23.89° C | 92% | 1014 hPa | 0 mm | - | 15 W/m² | - |
| 1777377675 | 23.89° C | 92% | 1013.9 hPa | 0 mm | - | 11 W/m² | - |
| 1777377370 | 23.89° C | 92% | 1013.9 hPa | 0 mm | - | 8 W/m² | - |
| 1777377067 | 23.89° C | 92% | 1013.7 hPa | 0 mm | - | 6 W/m² | - |
* Rain latest hour (hover to see other rain measurements)
** Current wind speed in m/s (hover to see current wind gust speed)